This is the latest recevied weather packets stored in our database for station/object KB3HHA-13. If no packets are shown the sender has not sent any weather packets the latest 10 day(s).
| Time | Temp. | Humidity | Pressure | Rain* | Wind** | Luminosity | Snow |
|---|---|---|---|---|---|---|---|
| 1777507322 | 13.89° C | 96% | 1007.1 hPa | 0 mm | - | - | - |
| 1777507023 | 13.89° C | 96% | 1007.2 hPa | 0 mm | - | - | - |
| 1777506721 | 13.89° C | 96% | 1007.1 hPa | 0 mm | - | - | - |
| 1777506421 | 13.89° C | 96% | 1007 hPa | 0 mm | - | - | - |
| 1777506123 | 13.89° C | 96% | 1007.1 hPa | 0 mm | - | - | - |
| 1777505820 | 13.89° C | 96% | 1007.3 hPa | 0 mm | - | - | - |
| 1777505520 | 13.89° C | 96% | 1007.3 hPa | 0 mm | - | - | - |
| 1777505221 | 13.89° C | 95% | 1007.2 hPa | 0 mm | - | - | - |
| 1777504922 | 13.89° C | 95% | 1007.2 hPa | 0 mm | - | - | - |
| 1777504620 | 13.89° C | 95% | 1007.1 hPa | 0 mm | - | - | - |
| 1777504322 | 14.44° C | 96% | 1007.2 hPa | 0 mm | - | - | - |
| 1777504022 | 14.44° C | 95% | 1007.2 hPa | 0 mm | - | - | - |
| 1777503720 | 14.44° C | 95% | 1007.1 hPa | 0 mm | - | - | - |
| 1777503422 | 14.44° C | 95% | 1007.1 hPa | 4.06 mm | - | - | - |
| 1777503121 | 14.44° C | 95% | 1006.8 hPa | 4.06 mm | - | - | - |
| 1777502822 | 13.89° C | 95% | 1007 hPa | 3.81 mm | - | - | - |
| 1777502522 | 14.44° C | 95% | 1007.3 hPa | 3.81 mm | - | - | - |
| 1777502220 | 14.44° C | 95% | 1007.5 hPa | 3.56 mm | - | - | - |
| 1777501920 | 14.44° C | 95% | 1007.4 hPa | 3.3 mm | - | - | - |
| 1777501621 | 14.44° C | 95% | 1007.4 hPa | 3.05 mm | - | - | - |
| 1777501320 | 14.44° C | 94% | 1007.5 hPa | 2.79 mm | - | - | - |
| 1777501022 | 14.44° C | 94% | 1007.8 hPa | 2.03 mm | - | - | - |
| 1777500721 | 14.44° C | 94% | 1007.9 hPa | 1.52 mm | - | - | - |
| 1777500420 | 14.44° C | 94% | 1008 hPa | 1.02 mm | - | - | - |
| 1777500120 | 14.44° C | 93% | 1008 hPa | 0.51 mm | - | - | - |
* Rain latest hour (hover to see other rain measurements)
** Current wind speed in m/s (hover to see current wind gust speed)